This is the latest recevied weather packets stored in our database for station/object W4DHW-4. If no packets are shown the sender has not sent any weather packets the latest 10 day(s).
| Time | Temp. | Humidity | Pressure | Rain* | Wind** | Luminosity | Snow |
|---|---|---|---|---|---|---|---|
| 1777810266 | 6.11° C | 65% | 1019.4 hPa | 0 mm | - | 219 W/m² | - |
| 1777809961 | 5.56° C | 68% | 1019.5 hPa | 0 mm | - | 197 W/m² | - |
| 1777809660 | 5.56° C | 72% | 1019.5 hPa | 0 mm | - | 193 W/m² | - |
| 1777809357 | 5° C | 72% | 1019.7 hPa | 0 mm | - | 171 W/m² | - |
| 1777809055 | 4.44° C | 72% | 1019.6 hPa | 0 mm | - | 150 W/m² | - |
| 1777808752 | 4.44° C | 75% | 1019.4 hPa | 0 mm | - | 140 W/m² | - |
| 1777808449 | 3.89° C | 78% | 1019.3 hPa | 0 mm | - | 127 W/m² | - |
| 1777808147 | 3.33° C | 80% | 1019.3 hPa | 0 mm | - | 105 W/m² | - |
| 1777807844 | 2.78° C | 85% | 1019 hPa | 0 mm | - | 95 W/m² | - |
| 1777807543 | 2.22° C | 87% | 1019.1 hPa | 0 mm | - | 84 W/m² | - |
| 1777807238 | 2.22° C | 86% | 1019.1 hPa | 0 mm | - | 69 W/m² | - |
| 1777806935 | 2.22° C | 86% | 1018.9 hPa | 0 mm | - | 46 W/m² | - |
| 1777806632 | 2.78° C | 84% | 1018.7 hPa | 0 mm | - | 40 W/m² | - |
| 1777806327 | 2.78° C | 82% | 1018.8 hPa | 0 mm | - | 36 W/m² | - |
| 1777806025 | 2.78° C | 83% | 1018.7 hPa | 0 mm | - | 32 W/m² | - |
| 1777805721 | 2.22° C | 84% | 1018.6 hPa | 0 mm | - | 28 W/m² | - |
| 1777805419 | 1.67° C | 86% | 1018.7 hPa | 0 mm | - | 23 W/m² | - |
| 1777805117 | 1.67° C | 87% | 1019 hPa | 0 mm | - | 16 W/m² | - |
| 1777804814 | 1.11° C | 87% | 1018.8 hPa | 0 mm | - | 12 W/m² | - |
| 1777804512 | 1.67° C | 86% | 1018.6 hPa | 0 mm | - | 10 W/m² | - |
| 1777804209 | 1.67° C | 86% | 1018.2 hPa | 0 mm | - | 6 W/m² | - |
| 1777803906 | 2.22° C | 84% | 1018.2 hPa | 0 mm | - | 4 W/m² | - |
| 1777803603 | 3.89° C | 73% | 1018.2 hPa | 0 mm | - | 1 W/m² | - |
| 1777803299 | 3.89° C | 71% | 1017.8 hPa | 0 mm | - | 0 W/m² | - |
| 1777802996 | 3.33° C | 72% | 1017.7 hPa | 0 mm | - | 0 W/m² | - |
* Rain latest hour (hover to see other rain measurements)
** Current wind speed in m/s (hover to see current wind gust speed)